TimeCST,TemperatureF,Dew PointF,Humidity,Sea Level PressureIn,VisibilityMPH,Wind Direction,Wind SpeedMPH,Gust SpeedMPH,PrecipitationIn,Events,Conditions,WindDirDegrees,DateUTC
12:52 AM,39.0,34.0,82,30.06,10.0,South,21.9,29.9,0.00,Rain,Light Rain,170,2012-12-31 06:52:00
1:52 AM,39.0,34.0,82,30.03,10.0,SSE,25.3,31.1,0.00,,Overcast,160,2012-12-31 07:52:00
2:52 AM,39.0,35.1,86,30.01,10.0,South,20.7,27.6,0.00,Rain,Light Rain,170,2012-12-31 08:52:00
3:52 AM,39.9,37.9,93,30.00,10.0,SSE,13.8,-,0.01,Rain,Light Rain,160,2012-12-31 09:52:00
4:08 AM,41.0,39.2,93,30.01,9.0,SSE,12.7,-,0.01,Rain,Light Rain,160,2012-12-31 10:08:00
4:52 AM,41.0,39.0,93,29.93,10.0,SSE,20.7,-,0.02,,Mostly Cloudy,150,2012-12-31 10:52:00
5:52 AM,44.1,43.0,96,29.94,9.0,SSE,17.3,-,N/A,,Overcast,160,2012-12-31 11:52:00
6:52 AM,46.0,44.1,93,29.96,10.0,South,4.6,-,N/A,,Overcast,190,2012-12-31 12:52:00
8:52 AM,48.0,46.0,93,30.00,8.0,Calm,Calm,-,N/A,,Overcast,0,2012-12-31 14:52:00
9:52 AM,46.9,45.0,93,30.02,7.0,Calm,Calm,-,N/A,,Overcast,0,2012-12-31 15:52:00
10:01 AM,46.4,44.6,93,30.02,6.0,East,3.5,-,N/A,,Overcast,100,2012-12-31 16:01:00
10:09 AM,48.2,46.4,93,30.03,7.0,East,3.5,-,N/A,,Overcast,100,2012-12-31 16:09:00
10:52 AM,52.0,48.9,89,30.01,10.0,Variable,3.5,-,N/A,,Scattered Clouds,0,2012-12-31 16:52:00
11:14 AM,53.6,48.2,82,30.03,10.0,SW,4.6,-,N/A,,Mostly Cloudy,220,2012-12-31 17:14:00
11:50 AM,57.2,48.2,72,30.01,10.0,SW,15.0,-,N/A,,Scattered Clouds,230,2012-12-31 17:50:00
11:52 AM,57.9,48.0,70,30.00,10.0,SW,16.1,-,N/A,,Scattered Clouds,220,2012-12-31 17:52:00
12:00 PM,59.0,48.2,67,30.01,10.0,WSW,17.3,-,N/A,,Mostly Cloudy,240,2012-12-31 18:00:00
12:08 PM,57.2,46.4,67,30.01,10.0,WSW,12.7,-,N/A,,Partly Cloudy,250,2012-12-31 18:08:00
12:52 PM,57.9,44.1,60,29.96,10.0,SW,9.2,-,N/A,,Clear,230,2012-12-31 18:52:00
1:52 PM,59.0,41.0,51,29.94,10.0,WSW,10.4,-,N/A,,Clear,250,2012-12-31 19:52:00
2:52 PM,62.1,39.0,43,29.92,10.0,WSW,8.1,17.3,N/A,,Clear,250,2012-12-31 20:52:00
3:52 PM,63.0,37.0,38,29.92,10.0,WSW,9.2,-,N/A,,Clear,250,2012-12-31 21:52:00
4:52 PM,63.0,30.0,29,29.92,10.0,West,12.7,-,N/A,,Clear,270,2012-12-31 22:52:00
5:52 PM,57.0,30.9,37,29.94,10.0,SW,5.8,-,N/A,,Clear,230,2012-12-31 23:52:00
6:52 PM,54.0,30.9,41,29.95,10.0,West,3.5,-,N/A,,Clear,270,2013-01-01 00:52:00
7:52 PM,50.0,30.9,48,29.98,10.0,SW,3.5,-,N/A,,Clear,230,2013-01-01 01:52:00
8:52 PM,46.0,32.0,58,30.00,10.0,West,3.5,-,N/A,,Clear,260,2013-01-01 02:52:00
9:52 PM,46.9,34.0,61,30.01,10.0,North,-9999.0,-,N/A,,Mostly Cloudy,0,2013-01-01 03:52:00
10:45 PM,44.6,39.2,81,30.05,10.0,NNE,9.2,-,N/A,,Overcast,30,2013-01-01 04:45:00
10:52 PM,45.0,39.9,82,30.04,10.0,NNE,8.1,-,N/A,,Overcast,30,2013-01-01 04:52:00
11:18 PM,44.6,39.2,81,30.07,9.0,NE,8.1,-,N/A,,Overcast,40,2013-01-01 05:18:00
11:52 PM,44.1,39.9,85,30.05,8.0,NNE,6.9,-,N/A,,Overcast,20,2013-01-01 05:52:00